Hourly Weather Ruszcza

Today, 16 April, Friday

Time Temperature Precipitation Wind Pressure Humidity
00:00 -1°C° 0.2 mm 4 mps 748 mmHg 98%
01:00 -1°C° 0.2 mm 4 mps 747 mmHg 98%
02:00 -1°C° 0.3 mm 4 mps 747 mmHg 98%
03:00 -1°C° 0.3 mm 5 mps 747 mmHg 98%
04:00 -1°C° 0.3 mm 5 mps 747 mmHg 98%
05:00 -1°C° 0.9 mm 5 mps 747 mmHg 98%
06:00 -1°C° 0.9 mm 5 mps 747 mmHg 98%
07:00 -1°C° 0.9 mm 5 mps 747 mmHg 99%
08:00 -1°C° 0.7 mm 5 mps 747 mmHg 99%
09:00 -1°C° 0.7 mm 5 mps 747 mmHg 99%
10:00 -1°C° 0.7 mm 6 mps 747 mmHg 99%
11:00 -1°C° 0.9 mm 6 mps 747 mmHg 98%
12:00 -1°C° 0.9 mm 6 mps 747 mmHg 98%
13:00 -1°C° 0.9 mm 6 mps 747 mmHg 98%
14:00 -1°C° 0.6 mm 6 mps 747 mmHg 98%
15:00 -1°C° 0.6 mm 6 mps 747 mmHg 98%
16:00 -1°C° 0.6 mm 6 mps 747 mmHg 98%
17:00 0°C° 0.7 mm 5 mps 748 mmHg 98%
18:00 -1°C° 0.7 mm 5 mps 748 mmHg 98%
19:00 -1°C° 0.7 mm 5 mps 748 mmHg 98%
20:00 -1°C° 0.5 mm 5 mps 748 mmHg 98%
21:00 -1°C° 0.5 mm 5 mps 748 mmHg 98%
22:00 -1°C° 0.5 mm 4 mps 748 mmHg 98%
23:00 -1°C° 0.1 mm 4 mps 748 mmHg 98%

Tomorrow, 17 April, Saturday

Time Temperature Precipitation Wind Pressure Humidity
00:00 -1°C° 0.1 mm 4 mps 748 mmHg 98%
01:00 0°C° 0.1 mm 4 mps 748 mmHg 98%
02:00 0°C° 0 mm 4 mps 748 mmHg 99%
03:00 0°C° 0 mm 4 mps 748 mmHg 99%
04:00 0°C° 0 mm 4 mps 748 mmHg 99%
05:00 +1°C° 0 mm 3 mps 748 mmHg 99%
06:00 +1°C° 0 mm 3 mps 748 mmHg 99%
07:00 +1°C° 0 mm 3 mps 748 mmHg 99%
08:00 +2°C° 0.1 mm 3 mps 749 mmHg 99%
09:00 +2°C° 0.1 mm 3 mps 749 mmHg 99%
10:00 +2°C° 0.1 mm 3 mps 749 mmHg 98%
11:00 +2°C° 0 mm 3 mps 749 mmHg 99%
12:00 +4°C° 0 mm 2 mps 749 mmHg 99%
13:00 +4°C° 0 mm 2 mps 749 mmHg 99%
14:00 +4°C° 0 mm 2 mps 749 mmHg 99%
15:00 +5°C° 0 mm 1 mps 749 mmHg 98%
16:00 +5°C° 0 mm 1 mps 749 mmHg 98%
17:00 +5°C° 0 mm 1 mps 749 mmHg 99%
18:00 +5°C° 0 mm 1 mps 750 mmHg 99%
19:00 +4°C° 0 mm 0 mps 750 mmHg 99%
20:00 +4°C° 0 mm 0 mps 750 mmHg 99%
21:00 +4°C° 0 mm 0 mps 750 mmHg 99%
22:00 +4°C° 0 mm 0 mps 750 mmHg 99%
23:00 +4°C° 0 mm 0 mps 750 mmHg 99%

Day after tomorrow, 18 April, Sunday

Time Temperature Precipitation Wind Pressure Humidity
00:00 +4°C° 0 mm 0 mps 750 mmHg 99%
01:00 +4°C° 0 mm 0 mps 749 mmHg 99%
02:00 +4°C° 0 mm 0 mps 749 mmHg 98%
03:00 +4°C° 0 mm 0 mps 749 mmHg 97%
04:00 +4°C° 0 mm 0 mps 749 mmHg 97%
05:00 +5°C° 0 mm 1 mps 749 mmHg 95%
06:00 +6°C° 0 mm 1 mps 749 mmHg 93%
07:00 +6°C° 0 mm 1 mps 749 mmHg 91%
08:00 +7°C° 0 mm 1 mps 749 mmHg 87%
09:00 +8°C° 0 mm 1 mps 749 mmHg 83%
10:00 +8°C° 0 mm 2 mps 749 mmHg 79%
11:00 +8°C° 0 mm 2 mps 749 mmHg 79%
12:00 +9°C° 0 mm 2 mps 749 mmHg 78%
13:00 +9°C° 0 mm 2 mps 748 mmHg 78%
14:00 +9°C° 0 mm 2 mps 748 mmHg 82%
15:00 +8°C° 0 mm 2 mps 748 mmHg 86%
16:00 +8°C° 0 mm 2 mps 748 mmHg 90%
17:00 +8°C° 0.1 mm 2 mps 748 mmHg 92%
18:00 +9°C° 0.1 mm 1 mps 747 mmHg 93%
19:00 +8°C° 0.1 mm 1 mps 747 mmHg 95%
20:00 +8°C° 0.1 mm 1 mps 747 mmHg 96%
21:00 +8°C° 0.1 mm 1 mps 747 mmHg 96%
22:00 +7°C° 0.1 mm 2 mps 747 mmHg 97%
23:00 +7°C° 0 mm 2 mps 747 mmHg 97%

19 April, Monday

Time Temperature Precipitation Wind Pressure Humidity
00:00 +7°C° 0 mm 2 mps 747 mmHg 98%
01:00 +7°C° 0 mm 2 mps 747 mmHg 98%
02:00 +7°C° 0 mm 2 mps 747 mmHg 98%
03:00 +6°C° 0 mm 2 mps 747 mmHg 98%
04:00 +5°C° 0 mm 3 mps 747 mmHg 98%
05:00 +5°C° 0 mm 3 mps 747 mmHg 97%
06:00 +7°C° 0 mm 3 mps 747 mmHg 95%
07:00 +7°C° 0 mm 3 mps 747 mmHg 94%
08:00 +7°C° 0 mm 3 mps 747 mmHg 88%
09:00 +8°C° 0 mm 3 mps 747 mmHg 83%
10:00 +9°C° 0 mm 3 mps 747 mmHg 78%
11:00 +9°C° 0.1 mm 3 mps 747 mmHg 74%
12:00 +10°C° 0.1 mm 3 mps 746 mmHg 70%
13:00 +10°C° 0.1 mm 4 mps 746 mmHg 66%
14:00 +10°C° 0 mm 3 mps 746 mmHg 67%
15:00 +10°C° 0 mm 3 mps 745 mmHg 67%
16:00 +10°C° 0 mm 3 mps 745 mmHg 67%
17:00 +9°C° 0 mm 3 mps 745 mmHg 71%
18:00 +9°C° 0 mm 2 mps 745 mmHg 75%
19:00 +8°C° 0 mm 2 mps 745 mmHg 79%
20:00 +7°C° 0 mm 2 mps 745 mmHg 82%
21:00 +7°C° 0 mm 2 mps 745 mmHg 85%
22:00 +6°C° 0 mm 2 mps 744 mmHg 88%
23:00 +5°C° 0 mm 3 mps 744 mmHg 89%

20 April, Tuesday

Time Temperature Precipitation Wind Pressure Humidity
00:00 +5°C° 0 mm 3 mps 744 mmHg 90%
01:00 +5°C° 0 mm 3 mps 743 mmHg 91%
02:00 +5°C° 0 mm 3 mps 743 mmHg 91%
03:00 +4°C° 0 mm 3 mps 743 mmHg 91%
04:00 +4°C° 0 mm 3 mps 743 mmHg 91%
05:00 +5°C° 0 mm 3 mps 743 mmHg 89%
06:00 +5°C° 0 mm 3 mps 743 mmHg 86%
07:00 +6°C° 0 mm 4 mps 743 mmHg 83%
08:00 +7°C° 0.2 mm 4 mps 743 mmHg 78%
09:00 +8°C° 0.2 mm 5 mps 742 mmHg 74%
10:00 +8°C° 0.2 mm 5 mps 742 mmHg 69%
11:00 +9°C° 0.2 mm 6 mps 742 mmHg 67%
12:00 +9°C° 0.2 mm 6 mps 742 mmHg 65%
13:00 +10°C° 0.2 mm 6 mps 741 mmHg 63%
14:00 +10°C° 0.2 mm 6 mps 741 mmHg 64%
15:00 +10°C° 0.2 mm 5 mps 741 mmHg 66%
16:00 +10°C° 0.2 mm 5 mps 741 mmHg 67%
17:00 +8°C° 0.2 mm 4 mps 741 mmHg 73%
18:00 +8°C° 0.2 mm 3 mps 741 mmHg 79%
19:00 +7°C° 0.2 mm 3 mps 741 mmHg 85%
20:00 +5°C° 0 mm 3 mps 741 mmHg 87%
21:00 +5°C° 0 mm 3 mps 741 mmHg 88%
22:00 +4°C° 0 mm 3 mps 741 mmHg 90%
23:00 +4°C° 0 mm 3 mps 741 mmHg 91%

21 April, Wednesday

Time Temperature Precipitation Wind Pressure Humidity
00:00 +4°C° 0 mm 3 mps 741 mmHg 92%
01:00 +4°C° 0 mm 4 mps 741 mmHg 93%
02:00 +4°C° 0 mm 3 mps 741 mmHg 93%
03:00 +3°C° 0 mm 3 mps 741 mmHg 93%
04:00 +3°C° 0 mm 3 mps 741 mmHg 94%
05:00 +4°C° 0 mm 4 mps 741 mmHg 90%
06:00 +5°C° 0 mm 4 mps 741 mmHg 86%
07:00 +6°C° 0 mm 4 mps 742 mmHg 83%
08:00 +7°C° 0.1 mm 5 mps 742 mmHg 76%
09:00 +9°C° 0.1 mm 6 mps 742 mmHg 69%
10:00 +10°C° 0.1 mm 7 mps 742 mmHg 63%
11:00 +10°C° 0 mm 7 mps 742 mmHg 61%
12:00 +10°C° 0 mm 7 mps 743 mmHg 58%
13:00 +10°C° 0 mm 7 mps 743 mmHg 56%
14:00 +10°C° 0 mm 6 mps 743 mmHg 56%
15:00 +10°C° 0 mm 6 mps 743 mmHg 56%
16:00 +10°C° 0 mm 5 mps 744 mmHg 56%
17:00 +10°C° 0 mm 4 mps 744 mmHg 62%
18:00 +8°C° 0 mm 3 mps 744 mmHg 68%
19:00 +7°C° 0 mm 2 mps 745 mmHg 74%
20:00 +6°C° 0 mm 2 mps 745 mmHg 75%
21:00 +6°C° 0 mm 2 mps 745 mmHg 77%
22:00 +5°C° 0 mm 2 mps 745 mmHg 79%
23:00 +5°C° 0 mm 2 mps 745 mmHg 81%
Show more